Content
SEND FEEDBACK

Daily
Averages
Monthly
Summary
United Kingdom

STORNOWAY, SCOTLAND


Home > Europe > United Kingdom > Scotland
Elevation: 43 feet     Latitude: 58 13N     Longitude: 006 19W

WEATHER
 
SELECT A DAY
Number of Records: 239,384;   Date Range: 7/1/96 - 9/16/14
 
SHARE

PRINT THIS DATA

[ ← Previous Day ]
WEATHER ALMANAC - MAY 17, 2013
[ Next Day → ]
[ °C ]   °F
Weather ElementAverageHighLow
Temperature46.1 °F51.8 °F (11:50 am)35.6 °F (12:50 am)
Dewpoint40.8 °F45 °F (6:50 pm)32 °F (12:50 am)
Humidity81.3 %94 % (3:50 am)68 % (3:50 pm)
Barometer29.94 in30.06 in (9:50 pm)29.77 in (12:50 am)
Wind Speed12.4 mph20.7 mph (9:50 pm)
Weather ElementAverage
Visibility7.6 mi
Wind DirectionESE (115.3 °)

Weather ElementTotal
Precipitation---
Heating Degree Days21.3 (Base 65)
Averaged from 55 records on May 17, 2013
WEATHER CONDITIONS BREAKOUT
WIND DIRECTION BREAKOUT
WEATHER BY HOUR - MAY 17, 2013
[ °C ]   °F
Local TimeTemperatureDewpointHumidityBarometerVisibilityWind DirectionWind SpeedGust SpeedPrecipitationEventsConditions
12:50 AM38.0 °F35.0 °F84 %29.78 in28.0 miWNW (300°)3.5 mph
12:50 AM35.6 °F32.0 °F87 %29.77 in6.2 miCalm
1:20 AM37.4 °F33.8 °F87 %29.77 in6.2 miNW (320°)2.3 mph
1:50 AM35.6 °F32.0 °F87 %29.80 in6.2 miNNW (330°)2.3 mph
2:20 AM35.6 °F32.0 °F87 %29.80 in6.2 miNNW (330°)3.5 mph
2:50 AM35.6 °F33.8 °F93 %29.80 in6.2 miNNW (330°)3.5 mph
3:20 AM35.6 °F32.0 °F87 %29.80 in6.2 miNW (320°)2.3 mph
3:50 AM39.0 °F38.0 °F94 %29.82 in31.0 miNorth (350°)4.6 mph
3:50 AM35.6 °F33.8 °F93 %29.83 in6.2 miNNW (330°)2.3 mph
4:20 AM37.4 °F33.8 °F87 %29.83 in6.2 miNNW (330°)2.3 mph
4:50 AM39.2 °F35.6 °F87 %29.86 in6.2 miNNW (330°)4.6 mph
5:20 AM37.4 °F33.8 °F87 %29.86 in6.2 miNW (320°)4.6 mph
5:50 AM39.2 °F37.4 °F93 %29.86 in6.2 miNW (320°)5.8 mph
6:20 AM42.8 °F39.2 °F87 %29.86 in6.2 miNNW (330°)5.8 mphPartly Cloudy
6:50 AM44.0 °F41.0 °F87 %29.88 in17.0 miNNW (330°)6.9 mph
6:50 AM44.6 °F41.0 °F87 %29.89 in6.2 miNNW (330°)5.8 mphPartly Cloudy
7:20 AM46.4 °F42.8 °F87 %29.89 in6.2 miNNW (340°)5.8 mphPartly Cloudy
7:50 AM48.2 °F42.8 °F82 %29.89 in6.2 miNNE (20°)9.2 mphPartly Cloudy
8:20 AM48.2 °F42.8 °F82 %29.92 in6.2 miNNE (30°)12.7 mphPartly Cloudy
8:50 AM48.2 °F42.8 °F82 %29.92 in6.2 miNNE (30°)15.0 mphScattered Clouds
9:20 AM50.0 °F42.8 °F76 %29.92 in6.2 miNNE (30°)15.0 mphScattered Clouds
9:50 AM47.0 °F43.0 °F81 %29.93 in10.0 miNE (40°)16.1 mphPartly Cloudy
9:50 AM48.2 °F42.8 °F82 %29.92 in6.2 miNNE (30°)16.1 mphScattered Clouds
10:20 AM50.0 °F42.8 °F76 %29.95 in6.2 miNNE (20°)15.0 mphScattered Clouds
10:50 AM50.0 °F42.8 °F76 %29.95 in6.2 miNE (40°)16.1 mphScattered Clouds
11:20 AM50.0 °F42.8 °F76 %29.95 in6.2 miNE (40°)13.8 mphPartly Cloudy
11:50 AM51.8 °F42.8 °F71 %29.95 in6.2 miNE (40°)15.0 mphPartly Cloudy
12:20 PM50.0 °F42.8 °F76 %29.98 in6.2 miNNE (30°)12.7 mphPartly Cloudy
12:50 PM50.0 °F44.0 °F72 %29.97 in13.0 miNNE (30°)12.7 mphMostly Cloudy
12:50 PM50.0 °F42.8 °F76 %29.98 in6.2 miNNE (30°)12.7 mphPartly Cloudy
1:20 PM50.0 °F42.8 °F76 %29.98 in6.2 miNNE (30°)13.8 mphScattered Clouds
1:50 PM51.8 °F42.8 °F71 %29.98 in6.2 miNNE (30°)15.0 mphScattered Clouds
2:20 PM51.8 °F42.8 °F71 %29.98 in6.2 miNNE (30°)16.1 mphScattered Clouds
2:50 PM51.8 °F42.8 °F71 %29.98 in6.2 miNE (40°)18.4 mphScattered Clouds
3:20 PM51.8 °F42.8 °F71 %29.98 in6.2 miNNE (30°)15.0 mphScattered Clouds
3:50 PM51.0 °F44.0 °F68 %29.99 in11.0 miNE (40°)17.3 mph
3:50 PM51.8 °F42.8 °F71 %30.01 in6.2 miNE (40°)16.1 mphScattered Clouds
4:20 PM51.8 °F44.6 °F76 %30.01 in6.2 miNE (40°)15.0 mphScattered Clouds
4:50 PM50.0 °F42.8 °F76 %30.01 in6.2 miNNE (30°)16.1 mphScattered Clouds
5:20 PM51.8 °F44.6 °F76 %30.01 in6.2 miNE (40°)15.0 mphScattered Clouds
5:50 PM50.0 °F42.8 °F76 %30.01 in6.2 miNNE (30°)17.3 mphScattered Clouds
6:20 PM50.0 °F44.6 °F82 %30.01 in6.2 miNNE (30°)16.1 mphMostly Cloudy
6:50 PM49.0 °F45.0 °F81 %30.02 in9.0 miNNE (30°)18.4 mphMostly Cloudy
6:50 PM48.2 °F42.8 °F82 %30.04 in6.2 miNNE (30°)18.4 mphMostly Cloudy
7:20 PM48.2 °F42.8 °F82 %30.04 in6.2 miNNE (20°)18.4 mphMostly Cloudy
7:50 PM48.2 °F42.8 °F82 %30.04 in6.2 miNNE (20°)17.3 mphMostly Cloudy
8:20 PM48.2 °F42.8 °F82 %30.04 in5.6 miNNE (20°)16.1 mphLight Drizzle
8:50 PM48.2 °F42.8 °F82 %30.04 in6.2 miNNE (20°)16.1 mphRainLight Rain Showers
9:20 PM48.2 °F42.8 °F82 %30.04 in6.2 miNNE (20°)17.3 mphMostly Cloudy
9:50 PM48.0 °F45.0 °F84 %30.05 in8.0 miNNE (20°)20.7 mphRainRain
9:50 PM48.2 °F42.8 °F82 %30.06 in6.2 miNNE (20°)18.4 mphMostly Cloudy
10:20 PM48.2 °F42.8 °F82 %30.06 in6.2 miNNE (20°)20.7 mphMostly Cloudy
10:50 PM48.2 °F42.8 °F82 %30.06 in6.2 miNNE (20°)19.6 mphScattered Clouds
11:20 PM46.4 °F42.8 °F87 %30.06 inNNE (20°)19.6 mphHaze
11:50 PM46.4 °F42.8 °F87 %30.06 in4.3 miNNE (20°)20.7 mphOvercast
Hourly data recorded from EGPO, located miles away from Stornoway, Scotland







STORIES FROM OUR PARTNERS